Tracking 19485 objects as of 21-Jan-2019
HD Live streaming from Space Station
objects crossing your sky now

EUTELSAT W2

Track EUTELSAT W2 now!
EUTELSAT W2 is classified as:


NORAD ID: 25491
Int'l Code: 1998-056A
Perigee: 36,063.3 km
Apogee: 36,094.7 km
Inclination: 6.8 °
Period: 1,450.7 minutes
Semi major axis: 42449 km
RCS: 1.3454 m2 (large)
Launch date: October 5, 1998
Source: European Telecommunications Satellite Organization (EUTE)
Launch site: FRENCH GUIANA (FRGUI)

Twenty-four transponders, Europe, North Africa, Middle East.
aabbcc
Your satellite tracking list
Your tracking list is empty




NASA's NSSDC Master Catalog

Two Line Element Set (TLE):
1 25491U 98056A   19020.48188726 -.00000271 +00000-0 +00000-0 0  9996
2 25491 006.7976 055.4633 0003702 227.8550 132.1476 00.99262855074017
Source of the keplerian elements: AFSPC